[[{"header":{"parameterUnit":"m.s-1","parameterCategory":1,"la1":30.2991,"la2":30.254,"lo1":-89.0895,"lo2":-89.0444,"dy":0.0017,"dx":0.0017,"nx":28,"ny":28,"refTime":"2024-03-03T03:00:00:Z","depth":0,"parameterNumber":2,"parameterNumberName":"U-component_of_WINDS"},"data":[0,0,0,0,0,0,0,0,0,0,0,0,0,0,0,0,0,0,0,0,0,0,0,0,0,0,0,0,0,0,0,0,0,0,0,0,0,0,0,0,0,0,0,0,0,0,0,0,0,0,0,0,0,0,0,0,0,0,-3.6978,-3.6978,0,-3.6999,-3.6999,-3.6999,-3.6923,-3.6921,-3.6919,-3.6916,-3.6937,-3.694,-3.6943,0,0,0,0,0,0,0,0,0,0,0,0,0,-3.6872,-3.6875,-3.6978,-3.6978,-3.6979,-3.6999,-3.6999,-3.7,-3.6924,-3.6921,-3.6918,-3.6915,-3.6937,-3.694,-3.6943,0,0,0,0,0,0,0,0,0,0,0,0,0,-3.6908,-3.6876,-3.6978,-3.6943,-3.694,-3.6999,-3.6999,-3.7,-3.6924,-3.6921,-3.6917,-3.6914,-3.6935,-3.6939,-3.6943,-3.7036,0,0,-3.6956,-3.6957,0,0,0,0,0,0,0,0,-3.6906,-3.6912,-3.6948,-3.6946,-3.6942,-3.6955,-3.697,-3.7012,-3.6925,-3.693,-3.6916,-3.6912,-3.6946,-3.6949,-3.696,-3.7037,-3.7038,-3.6956,-3.6958,-3.696,-3.6961,0,0,0,0,0,0,0,-3.6904,-3.6911,-3.6986,-3.6949,-3.6945,-3.6927,-3.6928,-3.6977,-3.6957,-3.693,-3.6924,-3.6928,-3.6944,-3.6957,-3.696,-3.7039,-3.6956,-3.6959,-3.6962,-3.6963,-3.7194,-3.7198,0,0,0,0,0,0,-3.6906,-3.6909,-3.6986,-3.6987,-3.6916,-3.6931,-3.6933,-3.6954,-3.6956,-3.6953,-3.6931,-3.6924,-3.6951,-3.6956,-3.6961,-3.707,-3.696,-3.6964,-3.6966,-3.7191,-3.7195,-3.7199,0,0,0,0,0,0,-3.6904,-3.6914,-3.6985,-3.6947,-3.6954,-3.6937,-3.6962,-3.6957,-3.6969,-3.6957,-3.6953,-3.6947,-3.6949,-3.6955,-3.7018,-3.707,-3.6966,-3.6969,-3.7186,-3.7192,-3.7197,-3.729,0,0,0,0,0,0,-3.6902,-3.6913,-3.6948,-3.6948,-3.6957,-3.7042,-3.6965,-3.6959,-3.6977,-3.6968,-3.6972,-3.6969,-3.6947,-3.7013,-3.7023,-3.7073,-3.6972,-3.7182,-3.7189,-3.7195,-3.7282,-3.7298,-3.7311,0,0,0,0,0,-3.6898,-3.6973,-3.695,-3.696,-3.7,-3.7045,-3.705,-3.7023,-3.6981,-3.7016,-3.7008,-3.6969,-3.7063,-3.702,-3.703,-3.7083,-3.7178,-3.7187,-3.7195,-3.7275,-3.7294,-3.7311,0,0,0,0,0,0,-3.6979,-3.6972,-3.6947,-3.7024,-3.7036,-3.7032,-3.7075,-3.7044,-3.7068,-3.7059,-3.7024,-3.7026,-3.7096,-3.7096,-3.7048,-3.7174,-3.7113,-3.7124,-3.7171,-3.7189,-3.7204,-3.7201,-3.6976,0,0,0,0,0,-3.7006,-3.7043,-3.7036,-3.7105,-3.7112,-3.7093,-3.7112,-3.709,-3.7101,-3.7105,-3.7102,-3.7114,-3.7146,-3.7168,-3.7197,-3.7282,-3.7282,-3.7324,-3.7338,-3.735,-3.736,-3.7406,-3.7424,-3.7227,-3.7227,-3.7226,0,0,-3.7062,-3.7063,-3.7088,-3.7121,-3.7127,-3.7167,-3.7098,-3.7142,-3.7171,-3.7112,-3.7171,-3.717,-3.7181,-3.7256,-3.7289,-3.7258,-3.7415,-3.7361,-3.7371,-3.7374,-3.7416,-3.7435,-3.7452,-3.7232,-3.7231,-3.723,0,0,-3.7183,-3.7188,-3.7246,-3.7255,-3.7266,-3.7253,-3.7268,-3.7269,-3.7266,-3.7326,-3.7282,-3.7317,-3.7373,-3.7382,-3.7395,-3.7523,-3.7488,-3.7534,-3.761,-3.7655,-3.767,-3.7684,-3.773,-3.7746,-3.7543,-3.7544,-3.7544,0,-3.7251,-3.7309,-3.728,-3.7328,-3.7344,-3.7293,-3.7352,-3.7362,-3.7382,-3.7394,-3.736,-3.743,-3.7434,-3.7511,-3.7542,-3.7554,-3.7569,-3.7532,-3.7671,-3.7684,-3.7696,-3.7739,-3.7757,-3.7549,-3.7548,-3.7548,-3.7547,0,-3.7392,-3.7433,-3.7479,-3.75,-3.7521,-3.7574,-3.7554,-3.7579,-3.7557,-3.7548,-3.761,-3.7613,-3.7642,-3.7659,-3.7637,-3.7734,-3.7715,-3.7676,-3.7614,-3.7721,-3.7761,-3.7777,-3.7557,-3.7555,-3.7553,-3.7552,0,0,-3.7562,-3.7569,-3.7586,-3.7596,-3.7605,-3.7637,-3.7689,-3.7717,-3.774,-3.7756,-3.7798,-3.7848,-3.7813,-3.7828,-3.7807,-3.7847,-3.7948,-3.7803,-3.7803,-3.783,-3.8055,-3.8083,-3.8103,-3.7926,-3.7929,-3.7931,-3.8054,0,-3.7682,-3.777,-3.7747,-3.7834,-3.7872,-3.7826,-3.7871,-3.7883,-3.7877,-3.7908,-3.7901,-3.7937,-3.7888,-3.7896,-3.7934,-3.7928,-3.7993,-3.7919,-3.7965,-3.7967,-3.7962,-3.8124,-3.8153,-3.8269,-3.807,-3.8072,-3.8074,0,-3.7832,-3.7855,-3.7947,-3.7952,-3.7967,-3.8008,-3.8033,-3.8064,-3.8076,-3.8069,-3.8086,-3.8058,-3.8109,-3.8049,-3.812,-3.807,-3.8088,-3.8088,-3.8092,-3.8094,-3.8026,-3.813,-3.8305,-3.8322,-3.8098,-3.8096,-3.8095,0,-3.7947,-3.8001,-3.8063,-3.8073,-3.808,-3.811,-3.8114,-3.8123,-3.8143,-3.8166,-3.8178,-3.8206,-3.8222,-3.8245,-3.8225,-3.8183,-3.8299,-3.8237,-3.8294,-3.8295,-3.8319,-3.8318,-3.85,-3.8333,-3.8333,-3.8333,-3.8332,0,-3.8081,-3.8139,-3.8115,-3.8153,-3.8217,-3.8191,-3.8255,-3.8254,-3.8263,-3.83,-3.8262,-3.8298,-3.8271,-3.8305,-3.829,-3.8351,-3.8358,-3.8354,-3.8349,-3.8357,-3.8357,-3.8367,-3.8358,-3.8337,-3.8336,-3.8335,-3.8334,0,-3.8219,-3.8205,-3.827,-3.8273,-3.8275,-3.8322,-3.8324,-3.8359,-3.8352,-3.84,-3.841,-3.8397,-3.8435,-3.8419,-3.8459,-3.8449,-3.8527,-3.8512,-3.8523,-3.8519,-3.8577,-3.8572,-3.877,-3.8795,-3.8614,-3.8615,-3.8617,0,-3.8305,-3.8349,-3.8357,-3.838,-3.8387,-3.8424,-3.8444,-3.8421,-3.8443,-3.8462,-3.8495,-3.853,-3.8557,-3.862,-3.8615,-3.8646,-3.8631,-3.8698,-3.8635,-3.8642,-3.8631,-3.8628,-3.8632,-3.871,-3.8712,-3.8714,-3.8716,0,-3.846,-3.8451,-3.8482,-3.8511,-3.8536,-3.8558,-3.8576,-3.8597,-3.8574,-3.8602,-3.864,-3.8661,-3.8703,-3.8739,-3.8766,-3.8771,-3.874,-3.8736,-3.8751,-3.8758,-3.8763,-3.8761,-3.8557,-3.8731,-3.873,-3.8728,-3.8728,-3.8727,-3.8574,-3.8611,-3.8623,-3.8658,-3.867,-3.8689,-3.8723,-3.872,-3.8752,-3.8784,-3.8769,-3.8814,-3.8827,-3.8861,-3.887,-3.8906,-3.8879,-3.8901,-3.8906,-3.8911,-3.8919,-3.8759,-3.8911,-3.891,-3.891,-3.8909,-3.8909,0,-3.8726,-3.8732,-3.8765,-3.8792,-3.8821,-3.8791,-3.881,-3.8835,-3.8876,-3.8891,-3.8918,-3.8964,-3.8999,-3.8997,-3.9029,-3.9058,-3.9045,-3.9067,-3.9064,-3.9066,-3.8941,-3.8925,-3.9078,-3.9078,-3.9078,-3.9078,-3.9078,-3.9078,-3.8808,-3.8869,-3.8863,-3.893,-3.8935,-3.898,-3.8993,-3.9011,-3.9022,-3.9075,-3.9104,-3.9103,-3.9112,-3.9145,-3.9175,-3.9174,-3.9187,-3.9215,-3.9209,-3.9091,-3.9075,-3.9059,-3.9043,-3.9219,-3.9219,-3.9331,-3.9332,-3.9332]},{"header":{"parameterUnit":"m.s-1","parameterCategory":1,"la1":30.2991,"la2":30.254,"lo1":-89.0895,"lo2":-89.0444,"dy":0.0017,"dx":0.0017,"nx":28,"ny":28,"refTime":"2024-03-03T03:00:00:Z","depth":0,"parameterNumber":3,"parameterNumberName":"V-component_of_WINDS"},"data":[0,0,0,0,0,0,0,0,0,0,0,0,0,0,0,0,0,0,0,0,0,0,0,0,0,0,0,0,0,0,0,0,0,0,0,0,0,0,0,0,0,0,0,0,0,0,0,0,0,0,0,0,0,0,0,0,0,0,1.2001,1.2001,0,1.2052,1.2053,1.2053,1.2099,1.2099,1.21,1.21,1.215,1.2151,1.2152,0,0,0,0,0,0,0,0,0,0,0,0,0,1.194,1.1941,1.2001,1.2001,1.2002,1.2052,1.2053,1.2054,1.2099,1.2099,1.21,1.21,1.215,1.2151,1.2152,0,0,0,0,0,0,0,0,0,0,0,0,0,1.1976,1.1941,1.2001,1.2031,1.2034,1.2052,1.2053,1.2054,1.2098,1.2099,1.21,1.2101,1.2149,1.2151,1.2152,1.2144,0,0,1.2156,1.2156,0,0,0,0,0,0,0,0,1.1974,1.1979,1.2025,1.2029,1.2032,1.207,1.205,1.2084,1.2098,1.2074,1.21,1.2101,1.2123,1.2126,1.2134,1.2146,1.2148,1.2156,1.2157,1.2157,1.2158,0,0,0,0,0,0,0,1.1972,1.1977,1.2021,1.2026,1.203,1.2041,1.2047,1.2057,1.2093,1.2076,1.2079,1.2085,1.2125,1.2133,1.2135,1.2149,1.2156,1.2157,1.2158,1.2158,1.216,1.2159,0,0,0,0,0,0,1.1965,1.1974,1.2019,1.2023,1.2005,1.2042,1.2048,1.2057,1.2093,1.2099,1.2084,1.2087,1.213,1.2134,1.2137,1.2132,1.2157,1.2158,1.2159,1.216,1.216,1.2159,0,0,0,0,0,0,1.1963,1.1969,1.2017,1.1999,1.2007,1.2042,1.2051,1.2058,1.2066,1.2099,1.2106,1.2086,1.2131,1.2136,1.2143,1.2134,1.2159,1.216,1.2161,1.216,1.2159,1.2119,0,0,0,0,0,0,1.1962,1.1968,1.1965,1.1999,1.2007,1.2022,1.2051,1.2058,1.2068,1.2072,1.2103,1.2108,1.2132,1.2141,1.2144,1.2136,1.2161,1.2162,1.2161,1.216,1.2122,1.2117,1.2113,0,0,0,0,0,1.1959,1.1951,1.1965,1.197,1.2005,1.2021,1.2026,1.2054,1.2067,1.2065,1.2087,1.2107,1.2135,1.2141,1.2145,1.2138,1.2163,1.2161,1.216,1.2123,1.2118,1.2113,0,0,0,0,0,0,1.1913,1.1955,1.1971,1.1974,1.1994,1.2029,1.2026,1.2047,1.2062,1.2065,1.2099,1.2105,1.2109,1.2124,1.213,1.2133,1.2152,1.2151,1.2123,1.2118,1.2114,1.211,1.2162,0,0,0,0,0,1.1903,1.1913,1.195,1.1948,1.1958,1.199,1.1999,1.2019,1.204,1.2049,1.2071,1.2091,1.2104,1.2112,1.2126,1.2124,1.2132,1.2122,1.2117,1.2114,1.2112,1.2115,1.2111,1.2154,1.2154,1.2154,0,0,1.1882,1.1907,1.1911,1.194,1.1958,1.1968,1.1997,1.2006,1.2014,1.205,1.2058,1.2076,1.21,1.2103,1.2106,1.2116,1.2103,1.2112,1.2109,1.2109,1.2113,1.2109,1.2105,1.2152,1.2153,1.2153,0,0,1.185,1.187,1.1872,1.189,1.1917,1.1939,1.194,1.1973,1.1986,1.1996,1.2024,1.2033,1.2055,1.2071,1.2083,1.206,1.208,1.2064,1.2041,1.2043,1.204,1.2037,1.203,1.2027,1.2062,1.2062,1.2062,0,1.1821,1.1838,1.187,1.1878,1.189,1.1925,1.1927,1.1943,1.1973,1.198,1.1992,1.2022,1.204,1.2049,1.2044,1.2051,1.2053,1.206,1.2038,1.2035,1.2033,1.2027,1.2024,1.206,1.206,1.2061,1.2061,0,1.1801,1.1812,1.1811,1.1841,1.1853,1.1858,1.189,1.1899,1.1919,1.194,1.195,1.1974,1.1994,1.1998,1.2016,1.201,1.2015,1.2032,1.2051,1.2027,1.2021,1.2019,1.2057,1.2058,1.2058,1.2059,0,0,1.1739,1.1789,1.1788,1.1803,1.1837,1.1846,1.1854,1.1875,1.1882,1.1902,1.1909,1.1928,1.1945,1.1957,1.1978,1.198,1.1962,1.1996,1.1998,1.199,1.1958,1.1945,1.1942,1.1976,1.1975,1.1975,1.1956,0,1.1713,1.1729,1.1759,1.1765,1.1777,1.1812,1.1818,1.184,1.186,1.1873,1.1895,1.1909,1.1929,1.1937,1.194,1.1963,1.1956,1.1965,1.1983,1.1983,1.1976,1.1939,1.1925,1.1906,1.1954,1.1954,1.1953,0,1.1684,1.1704,1.1712,1.1748,1.1754,1.1759,1.1782,1.1794,1.182,1.1835,1.1851,1.1874,1.1884,1.1902,1.1917,1.1923,1.1932,1.1944,1.1944,1.1947,1.1966,1.1941,1.19,1.1897,1.195,1.195,1.1951,0,1.1639,1.1668,1.1677,1.1689,1.1731,1.1734,1.1751,1.1778,1.179,1.181,1.1818,1.1838,1.1849,1.1865,1.1894,1.1904,1.1905,1.1925,1.1918,1.1917,1.1916,1.1916,1.1877,1.1922,1.1922,1.1922,1.1922,0,1.1607,1.161,1.1658,1.1664,1.1669,1.1704,1.1709,1.1729,1.1753,1.1763,1.1794,1.1803,1.1841,1.1854,1.1876,1.1886,1.189,1.1903,1.1909,1.19,1.1898,1.1906,1.1908,1.1921,1.1921,1.1921,1.1921,0,1.1557,1.1589,1.1602,1.1641,1.1651,1.1654,1.1687,1.1694,1.1718,1.173,1.1735,1.1771,1.1789,1.182,1.1845,1.1861,1.1865,1.1875,1.1857,1.1861,1.1852,1.1852,1.1816,1.1814,1.186,1.1859,1.1859,0,1.1535,1.1539,1.1579,1.1589,1.1606,1.1621,1.1634,1.1669,1.1681,1.1712,1.1715,1.1736,1.1754,1.178,1.1808,1.1829,1.184,1.1826,1.1843,1.1835,1.184,1.184,1.1841,1.1822,1.1821,1.182,1.182,0,1.1491,1.1508,1.1526,1.155,1.1565,1.1585,1.1607,1.1613,1.1653,1.1665,1.1684,1.1698,1.1726,1.1746,1.1771,1.1788,1.1811,1.1815,1.1814,1.1805,1.1795,1.1801,1.1847,1.1815,1.1816,1.1816,1.1816,1.1816,1.1455,1.1461,1.1491,1.1511,1.1532,1.1552,1.1561,1.1586,1.1603,1.163,1.1649,1.1667,1.1695,1.1731,1.1747,1.1762,1.1772,1.1771,1.1771,1.177,1.1767,1.1793,1.1766,1.1767,1.1767,1.1767,1.1767,0,1.1414,1.1436,1.1454,1.1484,1.15,1.1522,1.1548,1.1559,1.1575,1.1599,1.1617,1.164,1.166,1.1691,1.1714,1.172,1.1731,1.1724,1.1724,1.1728,1.1756,1.1755,1.1715,1.1715,1.1715,1.1715,1.1715,1.1715,1.1394,1.1406,1.1427,1.145,1.1472,1.1491,1.1504,1.1523,1.1543,1.1567,1.1585,1.1606,1.1633,1.1658,1.1678,1.1687,1.1693,1.1684,1.1696,1.1721,1.1726,1.1731,1.1729,1.1685,1.1685,1.1667,1.1667,1.1666]}]]